OPS 4682 DEB, 38407

Orbit data source: Space-Track

OPS 4682 DEB, 38407 is space debris in LEO originally from a launch on Sat, 03 Apr 1965 UTC launched from the Air Force Western Test Range (AFWTR). Debris objects in space refer to the collection of defunct objects orbiting the Earth. Examples of debris include non-operational satellites, rocket bodies, and fragments generated from explosions, collisions, or faulty payload assembly.

Loading next visibility...
Identifier
38407, 1965-027DL
Orbit
LEO
Country
Flag of USUS
Related business
Manufacturer
Unknown
Mission
Spacecraft
Bus & Motor
Unknown
Mass
Unknown
Launch date (UTC)
1965-04-03 (61 years ago)
Launch vehicle
Unknown
Launch site
Air Force Western Test Range (AFWTR)
Object type
Payload
Rocket body
Debris
Shape & HBR
Unknown shape, 0.1 m
Radar Cross Section
Small (<0.1 m²)

Expand to show TLE details & history
Last TLE update: 2 weeks ago

TLE from 2 weeks ago
0 OPS 4682 DEB
1 38407U 65027DL  26090.51322099  .00000430  00000-0  14671-2 0  9998
2 38407  90.2460   5.7234 0028567 338.5744  21.4178 12.96926290291201
Epoch: 2026-03-31T12:19Z
TLE epoch observation values (Epoch: 2026-03-31T12:19:02.293Z)
Latitude
-0.00007°
Longitude
-7.92548°
Altitude
1,256.686 km
Speed
7.236 km/s
True Right ascension
00h 22m 53s
True Declination
0° 00' 00"
Sunlit
Object was in daylight at epoch
Visualization orbit readout
Latitude
Unknown
Longitude
Unknown
Altitude
Unknown
Speed
Unknown
Apparent Right ascension
Unknown
Apparent Declination
Unknown
Sunlit
N/A
Visualization observer readout
Local Sidereal Time
22:59:08
Azimuth
Unknown
Elevation
Unknown
Doppler factor
Unknown
Orbital elements
Apogee altitude
1,293.137 km
Perigee altitude
1,249.433 km
Semi-major axis
7,649.422 km
Eccentricity
0.00286
Inclination
90.246°
RAAN
5.7234°
Arg. of periapsis
338.5744°
True anomaly
21.53774°
Mean anomaly
21.4178°
Eccentric anomaly
21.47773°
Mean motion
3.24414 °/min
Orbital period
110.97 mins
BSTAR
0.0014671
Loading maneuver chart data...
Computing Atmospheric mass density...
Loading historical data...
Loading historical data...
Loading historical data...
Loading historical data...
Loading historical data...
Loading historical data...
Loading historical data...

Documentation

Showing up to 5 results
|